Wisconsin Dells, Wisconsin, United States (53965)
Lat: 43.63N, Lon: 89.77W
Wx Zone: WIZ057
Local Info
Past Weather Observations for Monday, October 20, 2014

NOTE: This archive is for the closest National Weather Service station to Wisconsin Dells. Information may differ from the station used for current weather conditions.

Click here for Long-term Archive

Time Weather Temperature Dewpoint Humidity Pressure Winds Precip Visibility
23:55
Overcast
48°F / 9°C 39°F / 4°C 71% 30.06 in
(1018 mb)
NE 5.8 mph
(NE 9 kph)
- 10SM
23:35
Overcast
48°F / 9°C 39°F / 4°C 71% 30.06 in
(1018 mb)
NNE 5.8 mph
(NNE 9 kph)
- 10SM
23:15
Overcast
48°F / 9°C 39°F / 4°C 71% 30.06 in
(1018 mb)
NNE 3.5 mph
(NNE 6 kph)
- 10SM
22:55
Overcast
50°F / 10°C 39°F / 4°C 67% 30.06 in
(1018 mb)
N 3.5 mph
(N 6 kph)
- 10SM
22:35
Overcast
50°F / 10°C 39°F / 4°C 67% 30.04 in
(1017 mb)
N 3.5 mph
(N 6 kph)
- 10SM
22:15
Overcast
50°F / 10°C 39°F / 4°C 67% 30.06 in
(1018 mb)
N 4.6 mph
(N 7 kph)
- 10SM
21:55
Overcast
50°F / 10°C 39°F / 4°C 67% 30.04 in
(1017 mb)
N 3.5 mph
(N 6 kph)
- 10SM
21:35
Overcast
50°F / 10°C 37°F / 3°C 62% 30.04 in
(1017 mb)
Calm - 10SM
21:15
Overcast
52°F / 11°C 37°F / 3°C 58% 30.04 in
(1017 mb)
N 4.6 mph
(N 7 kph)
- 10SM
20:55
Overcast
52°F / 11°C 39°F / 4°C 62% 30.04 in
(1017 mb)
N 3.5 mph
(N 6 kph)
- 10SM
20:35
Overcast
52°F / 11°C 39°F / 4°C 62% 30.04 in
(1017 mb)
N 3.5 mph
(N 6 kph)
- 10SM
20:15
Overcast
52°F / 11°C 39°F / 4°C 62% 30.04 in
(1017 mb)
N 3.5 mph
(N 6 kph)
- 10SM
19:55
Overcast
52°F / 11°C 39°F / 4°C 62% 30.04 in
(1017 mb)
N 3.5 mph
(N 6 kph)
- 10SM
19:35
Overcast
52°F / 11°C 39°F / 4°C 62% 30.04 in
(1017 mb)
N 3.5 mph
(N 6 kph)
- 10SM
19:15
Overcast
52°F / 11°C 39°F / 4°C 62% 30.04 in
(1017 mb)
N 4.6 mph
(N 7 kph)
- 10SM
18:55
Overcast
52°F / 11°C 37°F / 3°C 58% 30.04 in
(1017 mb)
N 3.5 mph
(N 6 kph)
- 10SM
18:35
Overcast
54°F / 12°C 37°F / 3°C 54% 30.04 in
(1017 mb)
N 5.8 mph
(N 9 kph)
- 10SM
18:15
Overcast
54°F / 12°C 37°F / 3°C 54% 30.01 in
(1016 mb)
N 5.8 mph
(N 9 kph)
- 10SM
17:55
Overcast
54°F / 12°C 37°F / 3°C 54% 30.01 in
(1016 mb)
NNE 3.5 mph
(NNE 6 kph)
- 10SM
17:35
Overcast
54°F / 12°C 37°F / 3°C 54% 30.01 in
(1016 mb)
N 3.5 mph
(N 6 kph)
- 10SM
17:15
Overcast
55°F / 13°C 37°F / 3°C 51% 29.98 in
(1015 mb)
N 4.6 mph
(N 7 kph)
- 10SM
16:55
Overcast
55°F / 13°C 37°F / 3°C 51% 29.98 in
(1015 mb)
N 4.6 mph
(N 7 kph)
- 10SM
16:35
Overcast
55°F / 13°C 37°F / 3°C 51% 29.98 in
(1015 mb)
NNW 8.1 mph
(NNW 13 kph)
- 10SM
16:15
Overcast
55°F / 13°C 36°F / 2°C 47% 29.98 in
(1015 mb)
NNW 9.2 mph
(NNW 15 kph)
- 10SM
15:55
Overcast
55°F / 13°C 36°F / 2°C 47% 29.95 in
(1014 mb)
N 10.4 mph
(N 17 kph)
- 10SM
15:35
Overcast
57°F / 14°C 37°F / 3°C 48% 29.95 in
(1014 mb)
N 8.1 mph
(N 13 kph)
- 10SM
15:15
Overcast
57°F / 14°C 37°F / 3°C 48% 29.95 in
(1014 mb)
N 9.2 mph
(N 15 kph)
- 10SM
14:55
Overcast
57°F / 14°C 39°F / 4°C 51% 29.95 in
(1014 mb)
N 11.5 mph
(N 19 kph)
- 10SM
14:35
Overcast
57°F / 14°C 39°F / 4°C 51% 29.95 in
(1014 mb)
N 6.9 mph
(N 11 kph)
- 10SM
14:15
Overcast
57°F / 14°C 39°F / 4°C 51% 29.92 in
(1013 mb)
NNE 8.1 mph
(NNE 13 kph)
- 10SM
13:55
Overcast
57°F / 14°C 39°F / 4°C 51% 29.92 in
(1013 mb)
N 8.1 mph
(N 13 kph)
- 10SM
13:35
Overcast
57°F / 14°C 39°F / 4°C 51% 29.92 in
(1013 mb)
N 6.9 mph
(N 11 kph)
- 10SM
13:15
Overcast
57°F / 14°C 39°F / 4°C 51% 29.92 in
(1013 mb)
NNW 9.2 mph
(NNW 15 kph)
- 10SM
12:55
Overcast
57°F / 14°C 39°F / 4°C 51% 29.92 in
(1013 mb)
N 9.2 mph
(N 15 kph)
- 10SM
12:35
Mostly Cloudy
57°F / 14°C 41°F / 5°C 55% 29.92 in
(1013 mb)
NNW 6.9 mph
(NNW 11 kph)
- 10SM
12:15
Mostly Cloudy
57°F / 14°C 41°F / 5°C 55% 29.92 in
(1013 mb)
N 9.2 mph
(N 15 kph)
- 10SM
11:55
Overcast
57°F / 14°C 39°F / 4°C 51% 29.92 in
(1013 mb)
N 6.9 mph
(N 11 kph)
- 10SM
11:35
Overcast
57°F / 14°C 39°F / 4°C 51% 29.92 in
(1013 mb)
N 10.4 mph
(N 17 kph)
- 10SM
11:15
Overcast
57°F / 14°C 39°F / 4°C 51% 29.92 in
(1013 mb)
NNW 9.2 mph
(NNW 15 kph)
- 10SM
10:55
Overcast
55°F / 13°C 39°F / 4°C 55% 29.92 in
(1013 mb)
N 6.9 mph
(N 11 kph)
- 10SM
10:35
Overcast
57°F / 14°C 41°F / 5°C 55% 29.92 in
(1013 mb)
NW 8.1 mph
(NW 13 kph)
- 10SM
10:15
Mostly Cloudy
55°F / 13°C 41°F / 5°C 59% 29.92 in
(1013 mb)
NW 11.5 mph
(NW 19 kph)
- 10SM
09:55
Partly Cloudy
55°F / 13°C 41°F / 5°C 59% 29.92 in
(1013 mb)
NNW 12.7 mph
(NNW 20 kph)
- 10SM
09:35
Partly Cloudy
55°F / 13°C 41°F / 5°C 59% 29.92 in
(1013 mb)
NNW 6.9 mph
(NNW 11 kph)
- 10SM
09:15
Clear
55°F / 13°C 41°F / 5°C 59% 29.92 in
(1013 mb)
N 10.4 mph
(N 17 kph)
- 10SM
08:55
Clear
54°F / 12°C 41°F / 5°C 63% 29.92 in
(1013 mb)
NNW 9.2 mph
(NNW 15 kph)
- 10SM
08:35
Clear
52°F / 11°C 41°F / 5°C 67% 29.92 in
(1013 mb)
NNW 8.1 mph
(NNW 13 kph)
- 10SM
08:15
Clear
52°F / 11°C 41°F / 5°C 67% 29.92 in
(1013 mb)
NNW 8.1 mph
(NNW 13 kph)
- 10SM
07:55
Clear
50°F / 10°C 41°F / 5°C 71% 29.92 in
(1013 mb)
NNW 8.1 mph
(NNW 13 kph)
- 10SM
07:35
Clear
50°F / 10°C 41°F / 5°C 71% 29.89 in
(1012 mb)
NNW 9.2 mph
(NNW 15 kph)
- 10SM
07:15
Clear
48°F / 9°C 41°F / 5°C 76% 29.89 in
(1012 mb)
NW 8.1 mph
(NW 13 kph)
- 10SM
06:55
Clear
48°F / 9°C 41°F / 5°C 76% 29.89 in
(1012 mb)
NW 4.6 mph
(NW 7 kph)
- 10SM
06:35
Clear
46°F / 8°C 41°F / 5°C 82% 29.89 in
(1012 mb)
NW 5.8 mph
(NW 9 kph)
- 10SM
06:15
Clear
48°F / 9°C 41°F / 5°C 76% 29.89 in
(1012 mb)
NW 8.1 mph
(NW 13 kph)
- 10SM
05:55
Clear
48°F / 9°C 41°F / 5°C 76% 29.86 in
(1011 mb)
NW 6.9 mph
(NW 11 kph)
- 10SM
05:35
Clear
48°F / 9°C 41°F / 5°C 76% 29.86 in
(1011 mb)
NW 8.1 mph
(NW 13 kph)
- 10SM
05:15
Clear
48°F / 9°C 41°F / 5°C 76% 29.83 in
(1010 mb)
NW 9.2 mph
(NW 15 kph)
- 10SM
04:55
Clear
48°F / 9°C 43°F / 6°C 82% 29.83 in
(1010 mb)
NW 8.1 mph
(NW 13 kph)
- 10SM
04:35
Partly Cloudy
48°F / 9°C 43°F / 6°C 82% 29.83 in
(1010 mb)
NW 8.1 mph
(NW 13 kph)
- 10SM
04:15
Overcast
50°F / 10°C 43°F / 6°C 76% 29.8 in
(1009 mb)
NW 5.8 mph
(NW 9 kph)
- 10SM
03:55
Overcast
50°F / 10°C 43°F / 6°C 76% 29.8 in
(1009 mb)
NW 6.9 mph
(NW 11 kph)
- 10SM
03:35
Overcast
48°F / 9°C 43°F / 6°C 82% 29.8 in
(1009 mb)
WNW 6.9 mph
(WNW 11 kph)
- 10SM
03:15
Mostly Cloudy
48°F / 9°C 43°F / 6°C 82% 29.8 in
(1009 mb)
W 4.6 mph
(W 7 kph)
- 10SM
02:55
Partly Cloudy
48°F / 9°C 43°F / 6°C 82% 29.8 in
(1009 mb)
W 5.8 mph
(W 9 kph)
- 10SM
02:35
Clear
46°F / 8°C 41°F / 5°C 82% 29.77 in
(1008 mb)
W 3.5 mph
(W 6 kph)
- 10SM
02:15
Clear
46°F / 8°C 43°F / 6°C 87% 29.77 in
(1008 mb)
SSW 3.5 mph
(SSW 6 kph)
- 10SM
01:55
Clear
48°F / 9°C 43°F / 6°C 82% 29.77 in
(1008 mb)
SSW 4.6 mph
(SSW 7 kph)
- 10SM
01:35
Clear
48°F / 9°C 43°F / 6°C 82% 29.77 in
(1008 mb)
SSW 3.5 mph
(SSW 6 kph)
- 10SM
01:15
Clear
48°F / 9°C 41°F / 5°C 76% 29.77 in
(1008 mb)
SW 4.6 mph
(SW 7 kph)
- 10SM
00:55
Clear
50°F / 10°C 43°F / 6°C 76% 29.77 in
(1008 mb)
SSW 4.6 mph
(SSW 7 kph)
- 10SM
00:35
Clear
50°F / 10°C 43°F / 6°C 76% 29.77 in
(1008 mb)
SW 4.6 mph
(SW 7 kph)
- 10SM
00:15
Clear
50°F / 10°C 43°F / 6°C 76% 29.77 in
(1008 mb)
SSW 5.8 mph
(SSW 9 kph)
- 10SM
Time Weather Temperature Dewpoint Humidity Pressure Winds Precip Visibility


Weather for websites

WeatherForYou.com, LLC is not responsible for any damages or problems caused by this service. Current weather conditions are obtained from the closest station including government and personal stations which may have varying degrees of accuracy. Weather forecasts are derived from the NOAA NDFD. Like all things, this site belongs to Jesus Christ... He just trusts me to maintain it. If you have any questions or comments email webmaster@weatherforyou.com

Copyright © 2014, WeatherForYou.com LLC. All rights reserved.